#timestamp,LO_Frequency,Hit,StdDev 
1563537615.5,286046999.9,N
1563537635.3,286047000.1,N
1563537655.1,286047002.7,Y
1563537675.9,286047000.1,P
1563537695.7,286047002.7,P
1563537715.6,286047000.2,N
1563537735.4,286047002.7,N
1563537755.2,286047000.6,N
1563537775.1,286047000.2,N
1563537776.0,286047000.2,N
1563537795.8,286047000.5,N
1563537815.6,286047000.4,N
1563537835.5,286047000.6,N
1563537855.3,286047001.0,N
1563537875.2,286046998.5,N
1563537895.9,286047000.7,N
1563537915.7,286047001.2,N
1563537935.6,286047000.7,N
1563537955.4,286047000.8,N
1563537975.2,286047001.1,N
1563537995.1,286047000.4,N
1563537996.0,286047000.4,N
1563538015.8,286047001.2,N
1563538035.7,286046998.1,N
1563538055.5,286046998.5,N
1563538075.3,286047000.8,N
1563538095.2,286046998.2,N
1563538115.0,286047001.0,N
1563538115.9,286047001.0,N
1563538135.8,286047000.4,N
1563538155.6,286047000.9,N
1563538175.4,286047000.7,N
1563538195.3,286046998.5,N
1563538215.1,286047001.0,N
1563538235.8,286047000.4,N
1563538255.7,286047001.1,N
1563538275.5,286046998.2,N
1563538295.4,286046999.0,N
1563538315.2,286046998.4,N
1563538335.0,286046998.1,N
1563538335.9,286046998.1,N
1563538355.8,286046999.6,N
1563538375.6,286046999.4,N
1563538395.4,286046996.6,N
1563538415.3,286046999.5,N
1563538435.1,286046998.5,N
1563538455.9,286046999.2,N
1563538475.7,286046999.1,N
1563538495.5,286046999.5,N
1563538515.4,286046999.2,N
1563538535.2,286046998.8,N
1563538555.0,286046998.4,N
1563538555.9,286046998.4,N
1563538575.8,286046998.2,N
1563538595.6,286047001.2,N
1563538615.5,286046999.0,N
1563538635.3,286047001.2,N
1563538655.1,286046998.3,N
1563538675.9,286046998.3,N
1563538695.7,286047001.1,N
1563538715.5,286046998.5,N
1563538735.4,286046998.5,N
1563538755.2,286047000.9,N
1563538775.1,286047000.7,N
1563538776.0,286047000.7,N
1563538795.8,286047001.2,N
1563538815.6,286047000.9,N
1563538835.5,286046999.9,N
1563538855.3,286047000.4,N
1563538875.1,286047001.2,N
1563538895.9,286047000.1,N
1563538915.7,286047000.2,N
1563538935.6,286047000.1,N
1563538955.4,286047001.0,N
1563538975.2,286047001.0,N
1563538995.1,286047001.1,N
1563538996.0,286047001.1,N
1563539015.8,286047000.5,N
1563539035.7,286047000.0,N
1563539055.5,286046999.8,N
1563539075.3,286047002.7,N
1563539095.2,286047000.0,N
1563539115.0,286047002.7,N
1563539115.9,286047002.7,N
1563539135.7,286047001.8,N
1563539155.6,286047001.6,N
1563539175.4,286047004.1,Y
1563539195.3,286047001.9,P
1563539215.1,286047000.3,N
1563539235.8,286046999.8,N
1563539255.7,286047002.6,Y
1563539275.5,286046999.9,P
1563539295.4,286047001.6,P
1563539315.2,286047002.0,N
1563539335.0,286047001.3,N
1563539335.9,286047001.3,N
1563539355.8,286047003.7,Y
1563539375.6,286047001.4,P
1563539395.4,286047002.1,P
1563539415.3,286047000.0,N
1563539435.1,286047000.0,N
1563539455.9,286046999.7,N
1563539475.7,286047001.3,N
1563539495.5,286047002.0,N
1563539515.4,286047002.6,N
1563539535.2,286047000.0,N
1563539555.0,286047002.0,N
1563539556.0,286047002.0,N
1563539575.8,286047002.8,N
1563539595.6,286047002.7,N
1563539615.5,286047002.7,N
1563539635.3,286047002.3,N
1563539655.1,286047001.5,N
1563539675.9,286047004.4,Y
1563539695.7,286047001.1,P
1563539715.6,286047000.8,P
1563539735.4,286046998.1,P
1563539755.2,286047000.4,N
1563539775.1,286047001.2,N
1563539776.0,286047001.2,N
1563539795.8,286047001.0,N
1563539815.6,286047000.0,N
1563539835.5,286047000.5,N
1563539855.3,286047001.2,N
1563539875.2,286047001.2,N
1563539895.9,286046998.7,N
1563539915.7,286046999.9,N
1563539935.6,286047000.2,N
1563539955.4,286046999.8,N
1563539975.2,286047000.6,N
1563539995.1,286047000.6,N
1563539996.0,286047000.6,N
1563540015.8,286047002.4,N
1563540035.7,286047001.0,N
1563540055.5,286047002.8,Y
1563540075.3,286047001.0,P
1563540095.2,286047000.4,N
1563540115.0,286047000.0,N
1563540115.9,286047000.0,N
1563540135.8,286046999.8,N
1563540155.6,286047011.9,Y
1563540175.4,286047000.2,P
1563540195.3,286047000.6,P
1563540215.1,286047000.2,N
1563540235.8,286047002.2,Y
1563540255.7,286047002.4,P
1563540275.5,286046999.7,N
1563540295.4,286046999.8,N
1563540315.2,286047002.4,N
1563540335.0,286047001.1,N
1563540335.9,286047001.1,N
1563540355.8,286046999.3,N
1563540375.6,286046998.6,N
1563540395.4,286046998.5,N
1563540415.3,286047001.0,N
1563540435.1,286046998.3,N
1563540455.9,286046998.4,N
1563540475.7,286046998.9,N
1563540495.5,286046996.9,N
1563540515.4,286046996.8,N
1563540535.2,286046997.7,N
1563540555.0,286046995.6,N
1563540555.9,286046995.6,N
1563540575.8,286046996.1,N
1563540595.6,286046995.5,N
1563540615.5,286046996.2,N
1563540635.3,286046996.1,N
1563540655.1,286046995.5,N
1563540675.9,286046996.2,N
1563540695.7,286046995.8,N
1563540715.5,286046995.2,N
1563540735.4,286046994.9,N
1563540755.2,286046995.3,N
1563540775.1,286046995.1,N
1563540776.0,286046995.1,N
1563540795.8,286046995.8,N
1563540815.6,286046995.7,N
1563540835.5,286046995.2,N
1563540855.3,286046995.5,N
1563540875.1,286046995.8,N
1563540895.9,286046995.8,N
1563540915.7,286046995.9,N
1563540935.6,286046996.7,N
1563540955.4,286046997.3,N
1563540975.2,286046997.8,N
1563540995.1,286046998.0,N
1563540996.0,286046998.0,N
1563541015.8,286046996.4,Y
1563541035.7,286047000.7,P
1563541055.5,286047002.1,N
1563541075.3,286047001.5,N
1563541095.2,286047004.0,N
1563541115.0,286047003.3,N
1563541115.9,286047003.3,N
1563541135.7,286047005.1,N
1563541155.6,286047003.7,N
1563541175.4,286047005.5,N
1563541195.3,286047005.9,N
